Location: DARK SKY Beskydy - Park tmavé oblohy, www.darkskybeskydy.cz
(49.4926°N, 18.5016°E)
Time: 23:56:49
(UTC+02:00)

Vanguard 1 - Pass Details

Date: 01 March 2024
Orbit: 653 x 3825 km, 34.2° (Epoch: 21 April)

Event Time Altitude Azimuth Distance (km) Brightness Sun altitude
Rises 17:28:22 0° 213° (SSW) 4,507 14.2 -0.7°
Reaches altitude 10° 17:31:23 10° 202° (SSW) 3,894 13.6 -1.2°
Maximum altitude 17:40:22 30° 146° (SE) 3,549 12.7 -2.6°
Drops below altitude 10° 17:54:25 10° 95° (E) 6,182 13.5 -4.9°
Enters shadow 17:57:22 - 91° (E) 6,830 13.7 -5.3°
Sets 18:00:53 0° 87° (E) 7,595 - -5.9°
